,,,PA_Meas_PMT16A,,PR_Meas_QMR101_102,,RH_Meas_QMH101,,SR_Meas_QMS101,,TA_Meas_QMH101,,GenWind,,GenWind,
date,time,status,PA,status,PR,status,RH,status,SR,status,TA,status,DirAvg,status,SpdAvg,
2010-03-30, 00:00:04,VALID,1004.82,VALID,0,VALID,88.3653,VALID,0,VALID,25.6467,VALID,21,VALID,0,
2010-03-30, 00:01:04,VALID,1004.78,VALID,0,VALID,88.6781,VALID,0,VALID,25.6097,VALID,21,VALID,0,
2010-03-30, 00:02:04,VALID,1004.8,VALID,0,VALID,88.8993,VALID,0.100563,VALID,25.5902,VALID,21,VALID,0,
2010-03-30, 00:03:04,VALID,1004.74,VALID,0,VALID,89.0138,VALID,0.100563,VALID,25.5318,VALID,21,VALID,0,
2010-03-30, 00:04:04,VALID,1004.72,VALID,0,VALID,89.113,VALID,0.100563,VALID,25.4928,VALID,21,VALID,0,
2010-03-30, 00:05:04,VALID,1004.71,VALID,0,VALID,89.4028,VALID,0.100563,VALID,25.4734,VALID,21,VALID,0,
2010-03-30, 00:06:04,VALID,1004.71,VALID,0,VALID,89.6851,VALID,0.100563,VALID,25.4344,VALID,21,VALID,0,
2010-03-30, 00:07:04,VALID,1004.7,VALID,0,VALID,89.853,VALID,0.100563,VALID,25.3935,VALID,21,VALID,0.242578,
2010-03-30, 00:08:04,VALID,1004.7,VALID,0,VALID,90.1505,VALID,0.100563,VALID,25.3955,VALID,21,VALID,0.354297,
2010-03-30, 00:09:04,VALID,1004.69,VALID,0,VALID,90.5548,VALID,0.100563,VALID,25.337,VALID,21,VALID,0.286719,
2010-03-30, 00:10:04,VALID,1004.68,VALID,0,VALID,90.9515,VALID,0.100563,VALID,25.3176,VALID,21,VALID,0.390234,
2010-03-30, 00:11:04,VALID,1004.65,VALID,0,VALID,91.4855,VALID,0.100563,VALID,25.2786,VALID,32,VALID,0.571484,
2010-03-30, 00:12:04,VALID,1004.64,VALID,0,VALID,91.6991,VALID,0,VALID,25.2592,VALID,37,VALID,0.315234,
2010-03-30, 00:13:04,VALID,1004.65,VALID,0,VALID,91.8746,VALID,0,VALID,25.2007,VALID,37,VALID,0.271484,
2010-03-30, 00:14:04,VALID,1004.6,VALID,0,VALID,92.0501,VALID,0.100563,VALID,25.1618,VALID,51,VALID,0.332422,
2010-03-30, 00:15:04,VALID,1004.6,VALID,0,VALID,92.2027,VALID,0,VALID,25.1442,VALID,51,VALID,0.235156,
2010-03-30, 00:16:04,VALID,1004.64,VALID,0,VALID,92.3705,VALID,0,VALID,25.1248,VALID,51,VALID,0.135547,
2010-03-30, 00:17:04,VALID,1004.65,VALID,0,VALID,92.4849,VALID,0,VALID,25.0858,VALID,51,VALID,0.00117188,
2010-03-30, 00:18:04,VALID,1004.63,VALID,0,VALID,92.6833,VALID,0,VALID,25.0877,VALID,51,VALID,0.245703,
2010-03-30, 00:19:04,VALID,1004.64,VALID,0,VALID,92.7824,VALID,0,VALID,25.045,VALID,51,VALID,0,
2010-03-30, 00:20:04,VALID,1004.64,VALID,0,VALID,92.8587,VALID,0,VALID,25.0469,VALID,51,VALID,0,
2010-03-30, 00:21:04,VALID,1004.66,VALID,0,VALID,92.9884,VALID,0,VALID,25.0274,VALID,51,VALID,0,
2010-03-30, 00:22:04,VALID,1004.62,VALID,0,VALID,93.0189,VALID,0,VALID,24.9866,VALID,51,VALID,0,
2010-03-30, 00:23:04,VALID,1004.62,VALID,0,VALID,93.0571,VALID,0,VALID,25.0079,VALID,51,VALID,0,
2010-03-30, 00:24:04,VALID,1004.6,VALID,0,VALID,93.1486,VALID,0,VALID,25.0079,VALID,51,VALID,0,
2010-03-30, 00:25:04,VALID,1004.54,VALID,0,VALID,93.1944,VALID,0,VALID,24.9885,VALID,51,VALID,0.0910156,
2010-03-30, 00:26:04,VALID,1004.55,VALID,0,VALID,93.2783,VALID,0,VALID,24.9885,VALID,51,VALID,0.596094,
2010-03-30, 00:27:04,VALID,1004.54,VALID,0,VALID,93.3165,VALID,0,VALID,24.969,VALID,51,VALID,0.539063,
2010-03-30, 00:28:04,VALID,1004.51,VALID,0,VALID,93.3699,VALID,0,VALID,24.9495,VALID,51,VALID,0.38125,
2010-03-30, 00:29:04,VALID,1004.49,VALID,0,VALID,93.4385,VALID,0,VALID,24.93,VALID,51,VALID,0.424609,
2010-03-30, 00:30:04,VALID,1004.47,VALID,0,VALID,93.4843,VALID,0,VALID,24.8911,VALID,51,VALID,0.43125,
2010-03-30, 00:31:04,VALID,1004.46,VALID,0,VALID,93.4996,VALID,0,VALID,24.8716,VALID,51,VALID,0.335156,
2010-03-30, 00:32:04,VALID,1004.47,VALID,0,VALID,93.5758,VALID,0,VALID,24.8522,VALID,51,VALID,0.437891,
2010-03-30, 00:33:04,VALID,1004.42,VALID,0,VALID,93.6521,VALID,0,VALID,24.8327,VALID,51,VALID,0.470703,
2010-03-30, 00:34:04,VALID,1004.4,VALID,0,VALID,93.7666,VALID,0,VALID,24.8132,VALID,51,VALID,0.502344,
2010-03-30, 00:35:04,VALID,1004.4,VALID,0,VALID,93.8276,VALID,0,VALID,24.7937,VALID,51,VALID,0.548437,
2010-03-30, 00:36:04,VALID,1004.38,VALID,0,VALID,93.82,VALID,0,VALID,24.7548,VALID,49,VALID,0.658984,
2010-03-30, 00:37:04,VALID,1004.35,VALID,0,VALID,93.8352,VALID,0,VALID,24.6945,VALID,48,VALID,0.682422,
2010-03-30, 00:38:04,VALID,1004.28,VALID,0,VALID,93.9497,VALID,0,VALID,24.6964,VALID,47,VALID,0.607422,
2010-03-30, 00:39:04,VALID,1004.29,VALID,0,VALID,94.0565,VALID,0,VALID,24.675,VALID,32,VALID,0.718359,
2010-03-30, 00:40:05,VALID,1004.22,VALID,0,VALID,94.1404,VALID,0,VALID,24.6574,VALID,26,VALID,0.388672,
2010-03-30, 00:41:05,VALID,1004.19,VALID,0,VALID,94.2319,VALID,0,VALID,24.6574,VALID,26,VALID,0.385938,
2010-03-30, 00:42:05,VALID,1004.2,VALID,0,VALID,94.3006,VALID,0,VALID,24.6574,VALID,26,VALID,0.3,
2010-03-30, 00:43:05,VALID,1004.15,VALID,0,VALID,94.3769,VALID,0,VALID,24.6361,VALID,26,VALID,0.241406,
2010-03-30, 00:44:05,VALID,1004.14,VALID,0,VALID,94.4227,VALID,0,VALID,24.6769,VALID,26,VALID,0.00195313,
2010-03-30, 00:45:05,VALID,1004.12,VALID,0,VALID,94.4074,VALID,0,VALID,24.6964,VALID,26,VALID,0,
2010-03-30, 00:46:05,VALID,1004.1,VALID,0,VALID,94.4074,VALID,0,VALID,24.675,VALID,26,VALID,0.00078125,
2010-03-30, 00:47:05,VALID,1004.11,VALID,0,VALID,94.4532,VALID,0,VALID,24.7353,VALID,326,VALID,0.471484,
2010-03-30, 00:48:05,VALID,1004.06,VALID,0,VALID,94.4684,VALID,0,VALID,24.7937,VALID,326,VALID,0.135547,
2010-03-30, 00:49:05,VALID,1004.06,VALID,0,VALID,94.3845,VALID,0,VALID,24.8113,VALID,326,VALID,0.219531,
2010-03-30, 00:50:05,VALID,1004.04,VALID,0,VALID,94.2853,VALID,0,VALID,24.8716,VALID,325,VALID,0.385547,
2010-03-30, 00:51:05,VALID,1004.03,VALID,0,VALID,94.1556,VALID,0,VALID,24.9514,VALID,301,VALID,0.483594,
2010-03-30, 00:52:05,VALID,1004.01,VALID,0,VALID,94.0488,VALID,0,VALID,24.9476,VALID,284,VALID,0.0363281,
2010-03-30, 00:53:05,VALID,1003.99,VALID,0,VALID,93.8505,VALID,0,VALID,25.0079,VALID,284,VALID,0.648438,
2010-03-30, 00:54:05,VALID,1003.99,VALID,0,VALID,93.5758,VALID,0,VALID,25.1053,VALID,289,VALID,0.773047,
2010-03-30, 00:55:05,VALID,1003.94,VALID,0,VALID,93.1639,VALID,0,VALID,25.1832,VALID,276,VALID,0.951172,
2010-03-30, 00:56:05,VALID,1003.91,VALID,0,VALID,92.7138,VALID,0,VALID,25.2397,VALID,300,VALID,0.496094,
2010-03-30, 00:57:05,VALID,1003.91,VALID,0,VALID,92.3323,VALID,0,VALID,25.3,VALID,300,VALID,0.267969,
2010-03-30, 00:58:05,VALID,1003.88,VALID,0,VALID,91.9051,VALID,0,VALID,25.339,VALID,300,VALID,0.309766,
2010-03-30, 00:59:05,VALID,1003.89,VALID,0,VALID,91.5389,VALID,0,VALID,25.3584,VALID,300,VALID,0.201172,
2010-03-30, 01:00:05,VALID,1003.87,VALID,0,VALID,90.7837,VALID,0,VALID,25.339,VALID,301,VALID,0.0957031,
2010-03-30, 01:01:05,VALID,1003.84,VALID,0,VALID,90.8523,VALID,0,VALID,25.3176,VALID,301,VALID,0,
2010-03-30, 01:02:05,VALID,1003.84,VALID,0,VALID,91.0736,VALID,0,VALID,25.2786,VALID,334,VALID,0.764063,
2010-03-30, 01:03:05,VALID,1003.87,VALID,0,VALID,91.3253,VALID,0,VALID,25.3,VALID,330,VALID,0.325781,
2010-03-30, 01:04:05,VALID,1003.83,VALID,0,VALID,91.3635,VALID,0,VALID,25.2806,VALID,330,VALID,0.125391,
2010-03-30, 01:05:05,VALID,1003.85,VALID,0,VALID,91.5695,VALID,0,VALID,25.2611,VALID,330,VALID,0.269922,
2010-03-30, 01:06:05,VALID,1003.81,VALID,0,VALID,91.7754,VALID,0,VALID,25.2416,VALID,330,VALID,0.155469,
2010-03-30, 01:07:05,VALID,1003.84,VALID,0,VALID,91.9814,VALID,0,VALID,25.2221,VALID,333,VALID,0.500391,
2010-03-30, 01:08:05,VALID,1003.83,VALID,0,VALID,92.073,VALID,0,VALID,25.1618,VALID,332,VALID,0.262891,
2010-03-30, 01:09:05,VALID,1003.81,VALID,0,VALID,92.1416,VALID,0,VALID,25.1813,VALID,332,VALID,0.00117188,
2010-03-30, 01:10:05,VALID,1003.77,VALID,0,VALID,92.2484,VALID,0,VALID,25.2027,VALID,332,VALID,0.123828,
2010-03-30, 01:11:05,VALID,1003.78,VALID,0,VALID,92.3323,VALID,0,VALID,25.1832,VALID,330,VALID,0.05625,
2010-03-30, 01:12:05,VALID,1003.8,VALID,0,VALID,92.4086,VALID,0,VALID,25.2027,VALID,330,VALID,0,
2010-03-30, 01:13:05,VALID,1003.81,VALID,0,VALID,92.5231,VALID,0,VALID,25.2221,VALID,323,VALID,0.245703,
2010-03-30, 01:14:05,VALID,1003.86,VALID,0,VALID,92.5612,VALID,0,VALID,25.2611,VALID,284,VALID,0.257031,
2010-03-30, 01:15:05,VALID,1003.91,VALID,0,VALID,92.546,VALID,0,VALID,25.3195,VALID,282,VALID,0.385156,
2010-03-30, 01:16:05,VALID,1004,VALID,0,VALID,92.4697,VALID,0,VALID,25.337,VALID,280,VALID,0.398828,
2010-03-30, 01:17:05,VALID,1004.01,VALID,0,VALID,92.4315,VALID,0,VALID,25.376,VALID,272,VALID,0.479297,
2010-03-30, 01:18:05,VALID,1004,VALID,0,VALID,91.9814,VALID,0,VALID,25.4169,VALID,271,VALID,0.633203,
2010-03-30, 01:19:05,VALID,1003.98,VALID,0,VALID,91.2414,VALID,0,VALID,25.4558,VALID,294,VALID,1.19141,
2010-03-30, 01:20:05,VALID,1003.98,VALID,0,VALID,90.5167,VALID,0,VALID,25.4753,VALID,313,VALID,0.83125,
2010-03-30, 01:21:05,VALID,1003.96,VALID,0,VALID,90.4175,VALID,0,VALID,25.4734,VALID,313,VALID,0.778516,
2010-03-30, 01:22:05,VALID,1004.01,VALID,0,VALID,90.2878,VALID,0,VALID,25.4928,VALID,309,VALID,1.00742,
2010-03-30, 01:23:05,VALID,1004.08,VALID,0,VALID,90.1657,VALID,0,VALID,25.5551,VALID,288,VALID,1.33203,
2010-03-30, 01:24:05,VALID,1004.12,VALID,0,VALID,89.9445,VALID,0,VALID,25.5727,VALID,329,VALID,0.477734,
2010-03-30, 01:25:05,VALID,1004.16,VALID,0,VALID,89.2503,VALID,0,VALID,25.5513,VALID,298,VALID,1.35469,
2010-03-30, 01:26:05,VALID,1004.17,VALID,0,VALID,89.3952,VALID,0,VALID,25.6116,VALID,304,VALID,0.389062,
2010-03-30, 01:27:05,VALID,1004.21,VALID,0,VALID,88.9756,VALID,0,VALID,25.6097,VALID,318,VALID,0.929688,
2010-03-30, 01:28:05,VALID,1004.2,VALID,0,VALID,87.4117,VALID,0,VALID,25.5921,VALID,291,VALID,1.59609,
2010-03-30, 01:29:05,VALID,1004.18,VALID,0,VALID,87.3125,VALID,0,VALID,25.5921,VALID,301,VALID,0.663281,
2010-03-30, 01:30:05,VALID,1004.16,VALID,0,VALID,85.8096,VALID,0,VALID,25.5532,VALID,282,VALID,1.33281,
2010-03-30, 01:31:05,VALID,1004.15,VALID,0,VALID,85.6723,VALID,0,VALID,25.5941,VALID,250,VALID,0.593359,
2010-03-30, 01:32:05,VALID,1004.17,VALID,0,VALID,84.0931,VALID,0,VALID,25.5318,VALID,287,VALID,1.8293,
2010-03-30, 01:33:05,VALID,1004.22,VALID,0,VALID,83.1853,VALID,0,VALID,25.5532,VALID,289,VALID,1.76406,
2010-03-30, 01:34:05,VALID,1004.23,VALID,0,VALID,83.1472,VALID,0,VALID,25.5727,VALID,295,VALID,1.33516,
2010-03-30, 01:35:05,VALID,1004.21,VALID,0,VALID,83.0785,VALID,0,VALID,25.5921,VALID,284,VALID,1.30547,
2010-03-30, 01:36:05,VALID,1004.22,VALID,0,VALID,83.2311,VALID,0,VALID,25.5707,VALID,309,VALID,0.998047,
2010-03-30, 01:37:05,VALID,1004.2,VALID,0,VALID,83.2463,VALID,0,VALID,25.5727,VALID,305,VALID,0.433203,
2010-03-30, 01:38:05,VALID,1004.22,VALID,0,VALID,83.6659,VALID,0,VALID,25.5337,VALID,306,VALID,0.807422,
2010-03-30, 01:39:05,VALID,1004.22,VALID,0,VALID,83.8567,VALID,0,VALID,25.4928,VALID,296,VALID,0.593359,
2010-03-30, 01:40:05,VALID,1004.19,VALID,0,VALID,83.9024,VALID,0,VALID,25.4948,VALID,274,VALID,0.714453,
2010-03-30, 01:41:05,VALID,1004.15,VALID,0,VALID,83.727,VALID,0,VALID,25.4344,VALID,354,VALID,1.16016,
2010-03-30, 01:42:05,VALID,1004.13,VALID,0,VALID,83.2158,VALID,0,VALID,25.4149,VALID,288,VALID,1.56836,
2010-03-30, 01:43:05,VALID,1004.12,VALID,0,VALID,83.8414,VALID,0,VALID,25.4149,VALID,318,VALID,0.451562,
2010-03-30, 01:44:05,VALID,1004.07,VALID,0,VALID,83.3303,VALID,0,VALID,25.4169,VALID,298,VALID,1.45703,
2010-03-30, 01:45:05,VALID,1004.04,VALID,0,VALID,83.5439,VALID,0,VALID,25.3974,VALID,300,VALID,1.14102,
2010-03-30, 01:46:05,VALID,1004.02,VALID,0,VALID,83.0327,VALID,0,VALID,25.3779,VALID,304,VALID,1.68672,
2010-03-30, 01:47:05,VALID,1004,VALID,0,VALID,83.2082,VALID,0,VALID,25.3565,VALID,307,VALID,0.621094,
2010-03-30, 01:48:05,VALID,1004.01,VALID,0,VALID,83.5515,VALID,0,VALID,25.3779,VALID,306,VALID,0.308984,
2010-03-30, 01:49:05,VALID,1004,VALID,0,VALID,83.0861,VALID,0,VALID,25.337,VALID,291,VALID,1.30938,
2010-03-30, 01:50:05,VALID,1004.01,VALID,0,VALID,83.1167,VALID,0,VALID,25.339,VALID,291,VALID,0.416406,
2010-03-30, 01:51:05,VALID,1003.99,VALID,0,VALID,83.2692,VALID,0,VALID,25.339,VALID,289,VALID,0.551953,
2010-03-30, 01:52:05,VALID,1004.05,VALID,0,VALID,83.4905,VALID,0,VALID,25.3176,VALID,274,VALID,0.639453,
2010-03-30, 01:53:05,VALID,1004.04,VALID,0,VALID,83.9177,VALID,0,VALID,25.3195,VALID,291,VALID,0.205859,
2010-03-30, 01:54:05,VALID,1004.04,VALID,0,VALID,83.6888,VALID,0,VALID,25.3,VALID,239,VALID,0.801562,
2010-03-30, 01:55:05,VALID,1004.07,VALID,0,VALID,83.7575,VALID,0,VALID,25.2786,VALID,283,VALID,0.489844,
2010-03-30, 01:56:05,VALID,1004.07,VALID,0,VALID,84.0779,VALID,0,VALID,25.2806,VALID,289,VALID,0.380078,
2010-03-30, 01:57:05,VALID,1004.1,VALID,0,VALID,84.116,VALID,0,VALID,25.2592,VALID,198,VALID,0.424609,
2010-03-30, 01:58:05,VALID,1004.08,VALID,0,VALID,84.2076,VALID,0,VALID,25.2611,VALID,277,VALID,0.546094,
2010-03-30, 01:59:05,VALID,1004.11,VALID,0,VALID,84.4899,VALID,0,VALID,25.2202,VALID,313,VALID,0.507422,
2010-03-30, 02:00:05,VALID,1004.13,VALID,0,VALID,84.1694,VALID,0,VALID,25.2202,VALID,300,VALID,0.449219,
2010-03-30, 02:01:05,VALID,1004.14,VALID,0,VALID,83.6583,VALID,0,VALID,25.2221,VALID,283,VALID,0.609375,
2010-03-30, 02:02:05,VALID,1004.16,VALID,0,VALID,83.5591,VALID,0,VALID,25.2221,VALID,282,VALID,0.424609,
2010-03-30, 02:03:05,VALID,1004.16,VALID,0,VALID,83.5515,VALID,0,VALID,25.224,VALID,299,VALID,0.339844,
2010-03-30, 02:04:05,VALID,1004.14,VALID,0,VALID,83.9177,VALID,0,VALID,25.1813,VALID,315,VALID,0.652344,
2010-03-30, 02:05:05,VALID,1004.15,VALID,0,VALID,84.1389,VALID,0,VALID,25.1832,VALID,271,VALID,0.463672,
2010-03-30, 02:06:05,VALID,1004.14,VALID,0,VALID,84.0245,VALID,0,VALID,25.1637,VALID,292,VALID,1.00781,
2010-03-30, 02:07:05,VALID,1004.17,VALID,0,VALID,84.322,VALID,0,VALID,25.1832,VALID,315,VALID,0.677344,
2010-03-30, 02:08:05,VALID,1004.18,VALID,0,VALID,83.8414,VALID,0,VALID,25.1832,VALID,307,VALID,1.22695,
2010-03-30, 02:09:05,VALID,1004.18,VALID,0,VALID,84.2762,VALID,0,VALID,25.1813,VALID,313,VALID,0.773828,
2010-03-30, 02:10:05,VALID,1004.17,VALID,0,VALID,84.3373,VALID,0,VALID,25.2007,VALID,302,VALID,0.102344,
2010-03-30, 02:11:05,VALID,1004.2,VALID,0,VALID,84.3754,VALID,0,VALID,25.2221,VALID,302,VALID,0.258594,
2010-03-30, 02:12:05,VALID,1004.18,VALID,0,VALID,84.4364,VALID,0,VALID,25.2027,VALID,302,VALID,0.0929687,
2010-03-30, 02:13:05,VALID,1004.19,VALID,0,VALID,84.6043,VALID,0,VALID,25.1832,VALID,316,VALID,0.471094,
2010-03-30, 02:14:05,VALID,1004.2,VALID,0,VALID,84.6119,VALID,0,VALID,25.1618,VALID,221,VALID,0.277344,
2010-03-30, 02:15:05,VALID,1004.2,VALID,0,VALID,84.8026,VALID,0,VALID,25.1637,VALID,223,VALID,0.078125,
2010-03-30, 02:16:05,VALID,1004.18,VALID,0,VALID,85.0925,VALID,0,VALID,25.1637,VALID,223,VALID,0.000390625,
2010-03-30, 02:17:05,VALID,1004.17,VALID,0,VALID,84.7263,VALID,0,VALID,25.1442,VALID,260,VALID,0.388672,
2010-03-30, 02:18:05,VALID,1004.14,VALID,0,VALID,84.6119,VALID,0,VALID,25.1461,VALID,260,VALID,0.0324219,
2010-03-30, 02:19:05,VALID,1004.07,VALID,0,VALID,84.8866,VALID,0,VALID,25.1442,VALID,260,VALID,0,
2010-03-30, 02:20:05,VALID,1004.05,VALID,0,VALID,84.8179,VALID,0,VALID,25.1442,VALID,260,VALID,0.341797,
2010-03-30, 02:21:05,VALID,1003.99,VALID,0,VALID,84.9934,VALID,0,VALID,25.1248,VALID,317,VALID,0.377734,
2010-03-30, 02:22:05,VALID,1003.98,VALID,0,VALID,84.8713,VALID,0,VALID,25.1442,VALID,306,VALID,0.8,
2010-03-30, 02:23:05,VALID,1003.99,VALID,0,VALID,84.9857,VALID,0,VALID,25.1442,VALID,292,VALID,0.663672,
2010-03-30, 02:24:05,VALID,1003.95,VALID,0,VALID,85.0162,VALID,0,VALID,25.1442,VALID,297,VALID,1.01133,
2010-03-30, 02:25:05,VALID,1003.96,VALID,0,VALID,84.8026,VALID,0,VALID,25.1423,VALID,286,VALID,1.18789,
2010-03-30, 02:26:05,VALID,1003.93,VALID,0,VALID,84.589,VALID,0,VALID,25.2027,VALID,302,VALID,0.738672,
2010-03-30, 02:27:05,VALID,1003.93,VALID,0,VALID,84.7645,VALID,0,VALID,25.2221,VALID,328,VALID,0.745313,
2010-03-30, 02:28:05,VALID,1003.93,VALID,0,VALID,84.6348,VALID,0,VALID,25.2221,VALID,304,VALID,0.242969,
2010-03-30, 02:29:05,VALID,1003.93,VALID,0,VALID,84.9094,VALID,0,VALID,25.2221,VALID,338,VALID,0.553516,
2010-03-30, 02:30:05,VALID,1003.92,VALID,0,VALID,84.856,VALID,0,VALID,25.2027,VALID,309,VALID,1.26055,
2010-03-30, 02:31:05,VALID,1003.91,VALID,0,VALID,84.8942,VALID,0,VALID,25.2007,VALID,307,VALID,0.452344,
2010-03-30, 02:32:05,VALID,1003.9,VALID,0,VALID,85.329,VALID,0,VALID,25.2221,VALID,328,VALID,0.436328,
2010-03-30, 02:33:05,VALID,1003.88,VALID,0,VALID,85.5655,VALID,0,VALID,25.2027,VALID,278,VALID,0.273047,
2010-03-30, 02:34:05,VALID,1003.87,VALID,0,VALID,85.6266,VALID,0,VALID,25.1637,VALID,288,VALID,0.3,
2010-03-30, 02:35:05,VALID,1003.88,VALID,0,VALID,86.0538,VALID,0,VALID,25.1442,VALID,288,VALID,0.0339844,
2010-03-30, 02:36:05,VALID,1003.92,VALID,0,VALID,86.5039,VALID,0,VALID,25.1442,VALID,269,VALID,0.279297,
2010-03-30, 02:37:05,VALID,1003.93,VALID,0,VALID,87.0226,VALID,0,VALID,25.1442,VALID,202,VALID,0.257813,
2010-03-30, 02:38:05,VALID,1003.91,VALID,0,VALID,87.755,VALID,0,VALID,25.1832,VALID,223,VALID,0.408203,
2010-03-30, 02:39:05,VALID,1003.9,VALID,0,VALID,88.2204,VALID,0,VALID,25.2221,VALID,202,VALID,1.19297,
2010-03-30, 02:40:05,VALID,1003.91,VALID,0,VALID,88.495,VALID,0,VALID,25.2806,VALID,136,VALID,0.663672,
2010-03-30, 02:41:05,VALID,1003.88,VALID,0,VALID,88.5408,VALID,0,VALID,25.3176,VALID,281,VALID,0.235547,
2010-03-30, 02:42:05,VALID,1003.84,VALID,0,VALID,88.6247,VALID,0,VALID,25.337,VALID,189,VALID,0.677344,
2010-03-30, 02:43:05,VALID,1003.84,VALID,0,VALID,88.762,VALID,0,VALID,25.3779,VALID,180,VALID,1.50469,
2010-03-30, 02:44:05,VALID,1003.84,VALID,0,VALID,87.9991,VALID,0,VALID,25.3779,VALID,200,VALID,0.869141,
2010-03-30, 02:45:05,VALID,1003.84,VALID,0,VALID,88.0678,VALID,0,VALID,25.4169,VALID,222,VALID,0.341016,
2010-03-30, 02:46:05,VALID,1003.84,VALID,0,VALID,86.5268,VALID,0,VALID,25.4169,VALID,219,VALID,1.53516,
2010-03-30, 02:47:05,VALID,1003.82,VALID,0,VALID,86.2064,VALID,0,VALID,25.4149,VALID,211,VALID,1.08516,
2010-03-30, 02:48:05,VALID,1003.83,VALID,0,VALID,86.1758,VALID,0,VALID,25.4753,VALID,210,VALID,0.481641,
2010-03-30, 02:49:05,VALID,1003.8,VALID,0,VALID,85.9699,VALID,0,VALID,25.4558,VALID,317,VALID,0.639453,
2010-03-30, 02:50:05,VALID,1003.76,VALID,0,VALID,85.9317,VALID,0,VALID,25.4734,VALID,196,VALID,0.240234,
2010-03-30, 02:51:05,VALID,1003.73,VALID,0,VALID,86.1148,VALID,0,VALID,25.4539,VALID,199,VALID,0.66875,
2010-03-30, 02:52:05,VALID,1003.74,VALID,0,VALID,86.3589,VALID,0,VALID,25.4558,VALID,331,VALID,0.558984,
2010-03-30, 02:53:05,VALID,1003.71,VALID,0,VALID,86.6107,VALID,0,VALID,25.4558,VALID,335,VALID,0.0117188,
2010-03-30, 02:54:05,VALID,1003.72,VALID,0,VALID,86.8472,VALID,0,VALID,25.4363,VALID,233,VALID,0.401953,
2010-03-30, 02:55:05,VALID,1003.71,VALID,0,VALID,86.9082,VALID,0,VALID,25.3955,VALID,201,VALID,0.835156,
2010-03-30, 02:56:05,VALID,1003.73,VALID,0,VALID,86.9235,VALID,0,VALID,25.4169,VALID,230,VALID,0.601953,
2010-03-30, 02:57:05,VALID,1003.73,VALID,0,VALID,86.7633,VALID,0,VALID,25.4169,VALID,347,VALID,0.237891,
2010-03-30, 02:58:05,VALID,1003.71,VALID,0,VALID,86.8777,VALID,0,VALID,25.4169,VALID,75,VALID,0.300391,
2010-03-30, 02:59:05,VALID,1003.7,VALID,0,VALID,86.9311,VALID,0,VALID,25.3955,VALID,75,VALID,0.0742188,
2010-03-30, 03:00:05,VALID,1003.73,VALID,0,VALID,86.8472,VALID,0,VALID,25.376,VALID,15,VALID,0.379297,
2010-03-30, 03:01:05,VALID,1003.73,VALID,0,VALID,86.7633,VALID,0,VALID,25.3779,VALID,211,VALID,0.293359,
2010-03-30, 03:02:05,VALID,1003.71,VALID,0,VALID,86.8014,VALID,0,VALID,25.376,VALID,271,VALID,0.440625,
2010-03-30, 03:03:05,VALID,1003.71,VALID,0,VALID,86.8548,VALID,0,VALID,25.4169,VALID,270,VALID,0.549609,
2010-03-30, 03:04:05,VALID,1003.7,VALID,0,VALID,86.7556,VALID,0,VALID,25.4169,VALID,282,VALID,0.485547,
2010-03-30, 03:05:05,VALID,1003.67,VALID,0,VALID,86.809,VALID,0,VALID,25.3974,VALID,285,VALID,0.360547,
2010-03-30, 03:06:05,VALID,1003.7,VALID,0,VALID,86.6107,VALID,0,VALID,25.376,VALID,248,VALID,0.601563,
2010-03-30, 03:07:05,VALID,1003.65,VALID,0,VALID,86.6717,VALID,0,VALID,25.4169,VALID,285,VALID,0.146484,
2010-03-30, 03:08:05,VALID,1003.66,VALID,0,VALID,86.5802,VALID,0,VALID,25.4169,VALID,288,VALID,0.463281,
2010-03-30, 03:09:05,VALID,1003.61,VALID,0,VALID,86.4276,VALID,0,VALID,25.4363,VALID,274,VALID,0.729297,
2010-03-30, 03:10:05,VALID,1003.58,VALID,0,VALID,86.3513,VALID,0,VALID,25.4344,VALID,297,VALID,0.704297,
2010-03-30, 03:11:05,VALID,1003.58,VALID,0,VALID,86.2292,VALID,0,VALID,25.4948,VALID,293,VALID,0.560547,
2010-03-30, 03:12:05,VALID,1003.57,VALID,0,VALID,86.0004,VALID,0,VALID,25.4734,VALID,333,VALID,0.432031,
2010-03-30, 03:13:05,VALID,1003.56,VALID,0,VALID,85.9317,VALID,0,VALID,25.4948,VALID,298,VALID,0.2375,
2010-03-30, 03:14:05,VALID,1003.58,VALID,0,VALID,85.7791,VALID,0,VALID,25.5142,VALID,304,VALID,0.647266,
2010-03-30, 03:15:05,VALID,1003.57,VALID,0,VALID,85.6189,VALID,0,VALID,25.5142,VALID,284,VALID,0.640234,
2010-03-30, 03:16:05,VALID,1003.58,VALID,0,VALID,85.4892,VALID,0,VALID,25.5142,VALID,317,VALID,0.310547,
2010-03-30, 03:17:05,VALID,1003.59,VALID,0,VALID,85.68,VALID,0,VALID,25.4928,VALID,290,VALID,0.118359,
2010-03-30, 03:18:05,VALID,1003.61,VALID,0,VALID,85.6723,VALID,0,VALID,25.4948,VALID,273,VALID,0.491016,
2010-03-30, 03:19:05,VALID,1003.63,VALID,0,VALID,85.9699,VALID,0,VALID,25.4539,VALID,249,VALID,0.0816406,
2010-03-30, 03:20:04,VALID,1003.66,VALID,0,VALID,86.008,VALID,0,VALID,25.4558,VALID,249,VALID,0,
2010-03-30, 03:21:04,VALID,1003.66,VALID,0,VALID,86.1606,VALID,0,VALID,25.4383,VALID,249,VALID,0.220313,
2010-03-30, 03:22:04,VALID,1003.65,VALID,0,VALID,86.2369,VALID,0,VALID,25.3974,VALID,249,VALID,0.310547,
2010-03-30, 03:23:04,VALID,1003.67,VALID,0,VALID,86.3132,VALID,0,VALID,25.3779,VALID,249,VALID,0.132422,
2010-03-30, 03:24:04,VALID,1003.67,VALID,0,VALID,86.542,VALID,0,VALID,25.339,VALID,249,VALID,0.0792969,
2010-03-30, 03:25:04,VALID,1003.69,VALID,0,VALID,86.8167,VALID,0,VALID,25.339,VALID,301,VALID,0.809375,
2010-03-30, 03:26:04,VALID,1003.68,VALID,0,VALID,87.0913,VALID,0,VALID,25.339,VALID,303,VALID,0.430078,
2010-03-30, 03:27:04,VALID,1003.71,VALID,0,VALID,87.2515,VALID,0,VALID,25.339,VALID,303,VALID,0.177344,
2010-03-30, 03:28:04,VALID,1003.71,VALID,0,VALID,87.3736,VALID,0,VALID,25.3195,VALID,302,VALID,0.05625,
2010-03-30, 03:29:04,VALID,1003.75,VALID,0,VALID,87.6711,VALID,0,VALID,25.3195,VALID,266,VALID,0.715625,
2010-03-30, 03:30:04,VALID,1003.75,VALID,0,VALID,87.9915,VALID,0,VALID,25.339,VALID,314,VALID,0.930469,
2010-03-30, 03:31:04,VALID,1003.75,VALID,0,VALID,88.1746,VALID,0,VALID,25.3195,VALID,311,VALID,0.499609,
2010-03-30, 03:32:04,VALID,1003.75,VALID,0,VALID,88.3958,VALID,0,VALID,25.3176,VALID,335,VALID,0.88125,
2010-03-30, 03:33:04,VALID,1003.76,VALID,0,VALID,88.5026,VALID,0,VALID,25.339,VALID,314,VALID,0.917578,
2010-03-30, 03:34:04,VALID,1003.77,VALID,0,VALID,88.6705,VALID,0,VALID,25.339,VALID,307,VALID,0.688281,
2010-03-30, 03:35:04,VALID,1003.77,VALID,0,VALID,88.7315,VALID,0,VALID,25.3195,VALID,336,VALID,0.644922,
2010-03-30, 03:36:04,VALID,1003.81,VALID,0,VALID,88.9299,VALID,0,VALID,25.3176,VALID,295,VALID,1.11797,
2010-03-30, 03:37:04,VALID,1003.81,VALID,0,VALID,88.9833,VALID,0,VALID,25.3584,VALID,301,VALID,0.982031,
2010-03-30, 03:38:04,VALID,1003.82,VALID,0,VALID,89.0595,VALID,0,VALID,25.3565,VALID,330,VALID,1.02852,
2010-03-30, 03:39:04,VALID,1003.84,VALID,0,VALID,89.2121,VALID,0,VALID,25.376,VALID,284,VALID,1.29023,
2010-03-30, 03:40:04,VALID,1003.84,VALID,0,VALID,89.2274,VALID,0,VALID,25.4169,VALID,307,VALID,0.701953,
2010-03-30, 03:41:04,VALID,1003.83,VALID,0,VALID,89.235,VALID,0,VALID,25.4149,VALID,299,VALID,1.23008,
2010-03-30, 03:42:04,VALID,1003.85,VALID,0,VALID,89.3418,VALID,0,VALID,25.4363,VALID,284,VALID,0.666016,
2010-03-30, 03:43:04,VALID,1003.87,VALID,0,VALID,89.3952,VALID,0,VALID,25.4558,VALID,180,VALID,0.729297,
2010-03-30, 03:44:04,VALID,1003.87,VALID,0,VALID,89.4181,VALID,0,VALID,25.4753,VALID,217,VALID,1.05781,
2010-03-30, 03:45:04,VALID,1003.9,VALID,0,VALID,89.2884,VALID,0,VALID,25.4734,VALID,296,VALID,1.31133,